• In Kazakhstan
  • List of Countries
  • For 7 days
  • Water Temperature
  • Weather Map
  • News
  • Weather Widgets
  • user-avatar
    Login

    Hourly Weather La Paz

    Today, 15 October, Tuesday

    Time Temperature Precipitation Wind Pressure Humidity
    00:00 +6°C° 0 mm 1 mps 473 mmHg 84%
    01:00 +6°C° 0 mm 1 mps 473 mmHg 85%
    02:00 +6°C° 0 mm 1 mps 472 mmHg 85%
    03:00 +6°C° 0 mm 1 mps 472 mmHg 85%
    04:00 +4°C° 0 mm 0 mps 472 mmHg 85%
    05:00 +6°C° 0 mm 1 mps 473 mmHg 81%
    06:00 +7°C° 0 mm 1 mps 474 mmHg 77%
    07:00 +8°C° 0 mm 1 mps 475 mmHg 73%
    08:00 +8°C° 0.1 mm 2 mps 476 mmHg 69%
    09:00 +10°C° 0.1 mm 2 mps 476 mmHg 66%
    10:00 +12°C° 0.1 mm 2 mps 477 mmHg 62%
    11:00 +11°C° 0.3 mm 3 mps 477 mmHg 62%
    12:00 +11°C° 0.3 mm 3 mps 476 mmHg 62%
    13:00 +12°C° 0.3 mm 4 mps 476 mmHg 62%
    14:00 +11°C° 0.3 mm 4 mps 475 mmHg 64%
    15:00 +11°C° 0.3 mm 4 mps 475 mmHg 65%
    16:00 +11°C° 0.3 mm 4 mps 474 mmHg 67%
    17:00 +10°C° 0.2 mm 4 mps 474 mmHg 70%
    18:00 +8°C° 0.2 mm 4 mps 474 mmHg 73%
    19:00 +7°C° 0.2 mm 4 mps 475 mmHg 77%
    20:00 +8°C° 0 mm 3 mps 475 mmHg 78%
    21:00 +7°C° 0 mm 2 mps 475 mmHg 80%
    22:00 +8°C° 0 mm 1 mps 475 mmHg 81%
    23:00 +7°C° 0.1 mm 0 mps 475 mmHg 81%

    Tomorrow, 16 October, Wednesday

    Time Temperature Precipitation Wind Pressure Humidity
    00:00 +7°C° 0.1 mm 0 mps 474 mmHg 81%
    01:00 +7°C° 0.1 mm 0 mps 474 mmHg 82%
    02:00 +6°C° 0 mm 0 mps 474 mmHg 83%
    03:00 +6°C° 0 mm 0 mps 473 mmHg 84%
    04:00 +7°C° 0 mm 1 mps 473 mmHg 85%
    05:00 +7°C° 0 mm 1 mps 474 mmHg 82%
    06:00 +8°C° 0 mm 1 mps 475 mmHg 79%
    07:00 +8°C° 0 mm 1 mps 475 mmHg 76%
    08:00 +9°C° 0.2 mm 1 mps 476 mmHg 74%
    09:00 +9°C° 0.2 mm 2 mps 476 mmHg 72%
    10:00 +10°C° 0.2 mm 3 mps 476 mmHg 70%
    11:00 +10°C° 0.6 mm 3 mps 476 mmHg 69%
    12:00 +11°C° 0.6 mm 3 mps 476 mmHg 68%
    13:00 +11°C° 0.6 mm 3 mps 475 mmHg 66%
    14:00 +11°C° 0.5 mm 4 mps 475 mmHg 66%
    15:00 +11°C° 0.5 mm 4 mps 474 mmHg 66%
    16:00 +11°C° 0.5 mm 4 mps 474 mmHg 66%
    17:00 +10°C° 0.1 mm 4 mps 474 mmHg 71%
    18:00 +8°C° 0.1 mm 4 mps 474 mmHg 76%
    19:00 +8°C° 0.1 mm 3 mps 474 mmHg 81%
    20:00 +7°C° 0 mm 3 mps 474 mmHg 82%
    21:00 +7°C° 0 mm 2 mps 474 mmHg 83%
    22:00 +7°C° 0 mm 2 mps 474 mmHg 84%
    23:00 +7°C° 0 mm 2 mps 474 mmHg 84%

    Day after tomorrow, 17 October, Thursday

    Time Temperature Precipitation Wind Pressure Humidity
    00:00 +8°C° 0 mm 1 mps 474 mmHg 84%
    01:00 +8°C° 0 mm 1 mps 473 mmHg 83%
    02:00 +7°C° 0.3 mm 1 mps 473 mmHg 85%
    03:00 +7°C° 0.3 mm 1 mps 473 mmHg 86%
    04:00 +7°C° 0.3 mm 1 mps 473 mmHg 88%
    05:00 +7°C° 0.7 mm 1 mps 473 mmHg 86%
    06:00 +7°C° 0.7 mm 1 mps 474 mmHg 84%
    07:00 +8°C° 0.7 mm 1 mps 474 mmHg 82%
    08:00 +7°C° 0.8 mm 2 mps 474 mmHg 79%
    09:00 +8°C° 0.8 mm 2 mps 475 mmHg 77%
    10:00 +9°C° 0.8 mm 3 mps 475 mmHg 74%
    11:00 +9°C° 0.8 mm 3 mps 474 mmHg 74%
    12:00 +9°C° 0.8 mm 3 mps 474 mmHg 74%
    13:00 +9°C° 0.8 mm 3 mps 473 mmHg 74%
    14:00 +8°C° 0.5 mm 4 mps 473 mmHg 75%
    15:00 +8°C° 0.5 mm 4 mps 473 mmHg 75%
    16:00 +8°C° 0.5 mm 4 mps 472 mmHg 75%
    17:00 +7°C° 0.1 mm 4 mps 472 mmHg 77%
    18:00 +8°C° 0.1 mm 3 mps 472 mmHg 78%
    19:00 +7°C° 0.1 mm 3 mps 472 mmHg 80%
    20:00 +7°C° 0 mm 2 mps 473 mmHg 82%
    21:00 +7°C° 0 mm 2 mps 473 mmHg 84%
    22:00 +7°C° 0 mm 2 mps 473 mmHg 86%
    23:00 +8°C° 0.2 mm 1 mps 473 mmHg 85%

    18 October, Friday

    Time Temperature Precipitation Wind Pressure Humidity
    00:00 +7°C° 0.2 mm 1 mps 473 mmHg 85%
    01:00 +7°C° 0.2 mm 1 mps 472 mmHg 85%
    02:00 +7°C° 0.1 mm 1 mps 472 mmHg 85%
    03:00 +6°C° 0.1 mm 1 mps 472 mmHg 85%
    04:00 +5°C° 0.1 mm 2 mps 472 mmHg 85%
    05:00 +6°C° 0 mm 2 mps 473 mmHg 83%
    06:00 +6°C° 0 mm 2 mps 473 mmHg 80%
    07:00 +7°C° 0 mm 2 mps 474 mmHg 78%
    08:00 +8°C° 0.1 mm 3 mps 475 mmHg 73%
    09:00 +9°C° 0.1 mm 3 mps 475 mmHg 68%
    10:00 +10°C° 0.1 mm 4 mps 476 mmHg 63%
    11:00 +11°C° 0.2 mm 4 mps 475 mmHg 63%
    12:00 +11°C° 0.2 mm 4 mps 475 mmHg 63%
    13:00 +10°C° 0.2 mm 5 mps 474 mmHg 63%
    14:00 +10°C° 0.1 mm 4 mps 474 mmHg 65%
    15:00 +10°C° 0.1 mm 4 mps 473 mmHg 66%
    16:00 +10°C° 0.1 mm 4 mps 473 mmHg 68%
    17:00 +8°C° 1.2 mm 4 mps 473 mmHg 72%
    18:00 +8°C° 1.2 mm 3 mps 472 mmHg 76%
    19:00 +7°C° 1.2 mm 3 mps 472 mmHg 80%
    20:00 +7°C° 0 mm 3 mps 473 mmHg 80%
    21:00 +7°C° 0 mm 2 mps 473 mmHg 81%
    22:00 +7°C° 0 mm 2 mps 474 mmHg 82%
    23:00 +6°C° 0 mm 2 mps 474 mmHg 83%

    19 October, Saturday

    Time Temperature Precipitation Wind Pressure Humidity
    00:00 +6°C° 0 mm 2 mps 473 mmHg 84%
    01:00 +6°C° 0 mm 2 mps 473 mmHg 85%
    02:00 +6°C° 0.1 mm 2 mps 473 mmHg 86%
    03:00 +7°C° 0.1 mm 1 mps 473 mmHg 87%
    04:00 +7°C° 0.1 mm 1 mps 473 mmHg 88%
    05:00 +6°C° 0.2 mm 2 mps 473 mmHg 87%
    06:00 +6°C° 0.2 mm 2 mps 474 mmHg 86%
    07:00 +6°C° 0.2 mm 2 mps 474 mmHg 84%
    08:00 +7°C° 0.4 mm 2 mps 475 mmHg 81%
    09:00 +8°C° 0.4 mm 2 mps 475 mmHg 77%
    10:00 +9°C° 0.4 mm 3 mps 475 mmHg 74%
    11:00 +9°C° 0.4 mm 3 mps 475 mmHg 72%
    12:00 +9°C° 0.4 mm 3 mps 475 mmHg 71%
    13:00 +10°C° 0.4 mm 3 mps 475 mmHg 70%
    14:00 +9°C° 0.5 mm 3 mps 474 mmHg 72%
    15:00 +9°C° 0.5 mm 3 mps 474 mmHg 74%
    16:00 +8°C° 0.5 mm 3 mps 473 mmHg 76%
    17:00 +8°C° 0.2 mm 3 mps 473 mmHg 80%
    18:00 +7°C° 0.2 mm 3 mps 473 mmHg 83%
    19:00 +5°C° 0.2 mm 3 mps 473 mmHg 87%
    20:00 +4°C° 1.2 mm 3 mps 473 mmHg 87%
    21:00 +4°C° 1.2 mm 3 mps 473 mmHg 86%
    22:00 +3°C° 1.2 mm 3 mps 473 mmHg 86%
    23:00 +4°C° 0.2 mm 2 mps 472 mmHg 85%

    20 October, Sunday

    Time Temperature Precipitation Wind Pressure Humidity
    00:00 +4°C° 0.2 mm 2 mps 472 mmHg 83%
    01:00 +5°C° 0.2 mm 1 mps 472 mmHg 81%
    02:00 +5°C° 0.1 mm 1 mps 472 mmHg 81%
    03:00 +5°C° 0.1 mm 1 mps 472 mmHg 80%
    04:00 +5°C° 0.1 mm 1 mps 471 mmHg 79%
    05:00 +5°C° 0 mm 1 mps 472 mmHg 75%
    06:00 +6°C° 0 mm 1 mps 473 mmHg 71%
    07:00 +7°C° 0 mm 1 mps 473 mmHg 66%
    08:00 +7°C° 0 mm 2 mps 474 mmHg 58%
    09:00 +9°C° 0 mm 2 mps 475 mmHg 49%
    10:00 +10°C° 0 mm 2 mps 476 mmHg 41%
    11:00 +12°C° 0 mm 2 mps 476 mmHg 38%
    12:00 +12°C° 0 mm 3 mps 476 mmHg 36%
    13:00 +13°C° 0 mm 3 mps 476 mmHg 33%
    14:00 +13°C° 0 mm 3 mps 475 mmHg 35%
    15:00 +13°C° 0 mm 3 mps 475 mmHg 36%
    16:00 +13°C° 0 mm 3 mps 475 mmHg 38%
    17:00 +13°C° 0 mm 2 mps 474 mmHg 45%
    18:00 +10°C° 0 mm 2 mps 474 mmHg 52%
    19:00 +10°C° 0 mm 1 mps 473 mmHg 59%
    20:00 +9°C° 0 mm 1 mps 473 mmHg 56%
    21:00 +7°C° 0 mm 2 mps 473 mmHg 52%
    22:00 +7°C° 0 mm 2 mps 473 mmHg 48%
    23:00 +6°C° 0 mm 2 mps 473 mmHg 44%
    Show more